Regional Weather Roundup
Issued by NWS

Home | Current Version | Previous Version | Graphics & Text | Print | Product List | Glossary On
Versions: 1 2 3 4 5 6 7 8 9 10 11 12 13 14 15 16 17 18 19 20 21 22 23 24 25 26 27 28 29 30 31 32 33 34 35 36 37 38 39 40 41 42 43 44 45 46 47 48 49 50
000
ASUS44 KMEG 192000
RWRTN
TENNESSEE HOURLY STATE WEATHER ROUNDUP
NATIONAL WEATHER SERVICE MEMPHIS TN
200 PM CST FRI DEC 19 2014

TNZ002-004-019-021-049-052-054-088>092-192100-
WEST TENNESSEE

CITY           SKY/WX    TMP DP  RH WIND       PRES   REMARKS
MEMPHIS INTL   CLOUDY    45  34  65 NE6       30.21F
NWS MEMPHIS      N/A     42 N/A N/A MISG        N/A
JACKSON        CLOUDY    43  30  60 NE3       30.23F
DYERSBURG      CLOUDY    43  21  42 NE3       30.25F
UNION CITY     CLOUDY    37  28  70 N3        30.25F
PARIS          CLOUDY    37  27  65 N6        30.25F WCI  33
LEXINGTON      PTSUNNY   39  28  65 N6        30.22F WCI  35
SAVANNAH       CLOUDY    39  28  65 N5        30.23F
$$

TNZ008-025-027-028-033-062-065-066-192100-
NORTH MIDDLE TENNESSEE

CITY           SKY/WX    TMP DP  RH WIND       PRES   REMARKS
NASHVILLE      CLOUDY    41  27  57 N5        30.25R
CLARKSVILLE    CLOUDY    40  29  64 NW7       30.27R
COOKEVILLE     SUNNY     39  28  65 N3        30.19R
CROSSVILLE     CLOUDY    40  24  53 N5        30.16R
$$

TNZ061-075-076-078-094-096-097-192100-
SOUTH MIDDLE TENNESSEE

CITY           SKY/WX    TMP DP  RH WIND       PRES   REMARKS
FAYETTEVILLE   MOSUNNY   39  30  70 MISG      30.20R
TULLAHOMA      SUNNY     39  27  60 NW8       30.19S WCI  34
WINCHESTER     SUNNY     41  28  60 N7        30.19R
SHELBYVILLE    SUNNY     39  28  65 N8        30.22S WCI  34
$$

TNZ017-018-042-046-047-192100-
NORTHEAST TENNESSEE

CITY           SKY/WX    TMP DP  RH WIND       PRES   REMARKS
TRI CITIES     CLOUDY    45  22  40 CALM      30.14F
ELIZABETHTON   CLEAR     45  21  39 W6        30.13F
$$

TNZ012-013-036-069-073-074-192100-
CENTRAL EAST TENNESSEE

CITY           SKY/WX    TMP DP  RH WIND       PRES   REMARKS
KNOXVILLE      CLOUDY    46  27  47 NE7       30.15F
OAK RIDGE      PTSUNNY   47  23  38 E8        30.16F
GATLINBURG     CLEAR     45  25  45 CALM      30.15S
$$

TNZ083-085-099-192100-
SOUTHEAST TENNESSEE

CITY           SKY/WX    TMP DP  RH WIND       PRES   REMARKS
CHATTANOOGA    CLOUDY    47  27  45 NE7       30.16S
$$

SKY/WX REPORTED AS FAIR MEANS FEW OR NO CLOUDS BELOW
12 THOUSAND FEET.




USA.gov is the U.S. government's official web portal to all federal, state and local government web resources and services.